Location: Franklinton
(36.1018°N, 78.4581°W)
Time: 15:17:38
(UTC-05:00)

Envisat - Visible Passes

Search period start: 21 February 2019 00:00
Search period end: 03 March 2019 00:00
Orbit: 764 x 766 km, 98.2° (Epoch: 21 February)

Date Brightness Start Highest point End Pass type
(mag) Time Alt. Az. Time Alt. Az. Time Alt. Az.
21 Feb 5.2 19:54:23 10° SSW 19:58:29 25° W 20:02:38 10° NW visible
22 Feb 6.4 06:28:03 10° ENE 06:30:35 14° E 06:33:06 10° ESE visible
22 Feb 3.6 19:16:36 10° S 19:21:35 58° W 19:26:37 10° NNW visible
23 Feb 3.0 18:39:55 10° SSE 18:44:53 59° ENE 18:49:53 10° N visible
23 Feb 6.1 20:21:50 10° WSW 20:24:15 13° W 20:26:41 10° WNW visible
24 Feb 4.8 19:42:44 10° SSW 19:47:13 32° W 19:51:44 10° NW visible
25 Feb 6.8 06:18:41 10° E 06:19:15 10° E 06:19:49 10° E visible
25 Feb 3.2 19:05:19 10° S 19:10:23 76° WSW 19:15:29 10° NNW visible
26 Feb 3.3 18:28:54 10° SE 18:33:43 46° ENE 18:38:34 10° N visible
26 Feb 5.8 20:09:36 10° SW 20:12:56 17° W 20:16:16 10° NW visible
27 Feb 4.4 19:31:12 10° SSW 19:35:57 41° W 19:40:45 10° NNW visible
28 Feb 3.0 18:54:06 10° SSE 18:59:11 84° ENE 19:04:17 10° N visible
01 Mar 5.4 19:57:43 10° SW 20:01:38 22° W 20:05:35 10° NW visible
02 Mar 3.8 19:19:47 10° S 19:24:43 53° W 19:29:41 10° NNW visible
